STARLINK-34341

Last updated on Fri Jun 27 2025 00:02:05 GMT+0000 (Coordinated Universal Time)

1 64161U 25112R 25177.58334491 .00075549 00000+0 19205-2 0 9996 2 64161 97.6029 227.6531 0000753 116.9537 86.0547 15.39339564 5920
UTC large
Height (km)
Speed (km/s)
/
Latitude / Longitude
Inclination (degrees)
Orbital Period (minutes)
Azimuth
Elevation
Range (km)
Doppler Factor

Next 0 passes for location: London (51.5072 / 0.1276)

Sorry there are no passes over London.